When you browse on this site, cookies collect data to enhance your experience and personalize the content and advertising you see.
Visit our Privacy Policy to learn more. By continuing to use the site, you agree to this use of cookies and data.
  • In United Kingdom
  • List of Countries
  • For 7 days
  • Water Temperature
  • Satellite Maps
  • Weather Map
  • Weather Widgets
  • user-avatar
    Login

    Hourly Weather Gweru

    Today, 20 March, Wednesday

    Time Temperature Precipitation Wind Pressure Humidity
    00:00 +17°C° 0 mm 2 mps 643 mmHg 97%
    01:00 +17°C° 0 mm 2 mps 642 mmHg 98%
    02:00 +16°C° 0 mm 1 mps 642 mmHg 98%
    03:00 +16°C° 0 mm 1 mps 642 mmHg 98%
    04:00 +16°C° 0 mm 1 mps 642 mmHg 98%
    05:00 +16°C° 0 mm 1 mps 641 mmHg 97%
    06:00 +17°C° 0 mm 2 mps 642 mmHg 90%
    07:00 +19°C° 0 mm 2 mps 643 mmHg 84%
    08:00 +20°C° 0 mm 2 mps 644 mmHg 77%
    09:00 +24°C° 0 mm 2 mps 644 mmHg 63%
    10:00 +26°C° 0 mm 3 mps 644 mmHg 50%
    11:00 +29°C° 0 mm 3 mps 645 mmHg 36%
    12:00 +30°C° 0 mm 4 mps 644 mmHg 33%
    13:00 +30°C° 0 mm 4 mps 644 mmHg 31%
    14:00 +32°C° 0 mm 5 mps 644 mmHg 29%
    15:00 +30°C° 0 mm 4 mps 643 mmHg 32%
    16:00 +29°C° 0 mm 4 mps 643 mmHg 35%
    17:00 +28°C° 0 mm 4 mps 642 mmHg 38%
    18:00 +26°C° 0 mm 3 mps 642 mmHg 47%
    19:00 +22°C° 0 mm 3 mps 642 mmHg 55%
    20:00 +20°C° 0 mm 2 mps 642 mmHg 64%
    21:00 +19°C° 0 mm 2 mps 642 mmHg 71%
    22:00 +19°C° 0 mm 2 mps 642 mmHg 78%
    23:00 +18°C° 0 mm 2 mps 643 mmHg 84%

    Tomorrow, 21 March, Thursday

    Time Temperature Precipitation Wind Pressure Humidity
    00:00 +18°C° 0 mm 1 mps 642 mmHg 87%
    01:00 +18°C° 0 mm 1 mps 642 mmHg 89%
    02:00 +16°C° 0 mm 1 mps 642 mmHg 91%
    03:00 +16°C° 0 mm 1 mps 641 mmHg 91%
    04:00 +16°C° 0 mm 1 mps 641 mmHg 91%
    05:00 +16°C° 0 mm 1 mps 641 mmHg 92%
    06:00 +19°C° 0 mm 1 mps 642 mmHg 82%
    07:00 +20°C° 0 mm 2 mps 643 mmHg 72%
    08:00 +21°C° 0 mm 2 mps 644 mmHg 62%
    09:00 +25°C° 0 mm 3 mps 644 mmHg 51%
    10:00 +27°C° 0 mm 4 mps 645 mmHg 41%
    11:00 +29°C° 0 mm 5 mps 646 mmHg 31%
    12:00 +30°C° 0 mm 5 mps 645 mmHg 30%
    13:00 +32°C° 0 mm 5 mps 645 mmHg 29%
    14:00 +32°C° 0 mm 5 mps 645 mmHg 28%
    15:00 +30°C° 0 mm 5 mps 644 mmHg 32%
    16:00 +29°C° 0 mm 5 mps 644 mmHg 35%
    17:00 +28°C° 0 mm 4 mps 643 mmHg 39%
    18:00 +26°C° 0 mm 4 mps 643 mmHg 50%
    19:00 +24°C° 0 mm 3 mps 643 mmHg 60%
    20:00 +20°C° 0 mm 3 mps 643 mmHg 71%
    21:00 +20°C° 0 mm 3 mps 643 mmHg 77%
    22:00 +19°C° 0 mm 3 mps 644 mmHg 83%
    23:00 +18°C° 0 mm 3 mps 644 mmHg 89%

    Day after tomorrow, 22 March, Friday

    Time Temperature Precipitation Wind Pressure Humidity
    00:00 +18°C° 0 mm 3 mps 644 mmHg 92%
    01:00 +17°C° 0 mm 2 mps 643 mmHg 95%
    02:00 +17°C° 0 mm 2 mps 643 mmHg 97%
    03:00 +16°C° 0 mm 2 mps 643 mmHg 97%
    04:00 +16°C° 0 mm 2 mps 642 mmHg 97%
    05:00 +16°C° 0 mm 2 mps 642 mmHg 97%
    06:00 +17°C° 0 mm 2 mps 643 mmHg 89%
    07:00 +19°C° 0 mm 3 mps 644 mmHg 81%
    08:00 +20°C° 0 mm 4 mps 645 mmHg 73%
    09:00 +23°C° 0 mm 4 mps 646 mmHg 63%
    10:00 +26°C° 0 mm 5 mps 646 mmHg 52%
    11:00 +28°C° 0 mm 5 mps 647 mmHg 41%
    12:00 +29°C° 0 mm 5 mps 647 mmHg 39%
    13:00 +30°C° 0 mm 5 mps 646 mmHg 37%
    14:00 +30°C° 0 mm 5 mps 646 mmHg 35%
    15:00 +29°C° 0 mm 5 mps 645 mmHg 40%
    16:00 +28°C° 0 mm 5 mps 645 mmHg 45%
    17:00 +27°C° 0 mm 5 mps 644 mmHg 50%
    18:00 +25°C° 0 mm 5 mps 644 mmHg 59%
    19:00 +22°C° 0 mm 5 mps 644 mmHg 69%
    20:00 +20°C° 0 mm 4 mps 645 mmHg 78%
    21:00 +20°C° 0 mm 4 mps 645 mmHg 83%
    22:00 +19°C° 0 mm 4 mps 645 mmHg 88%
    23:00 +18°C° 0 mm 4 mps 645 mmHg 93%

    23 March, Saturday

    Time Temperature Precipitation Wind Pressure Humidity
    00:00 +18°C° 0 mm 4 mps 645 mmHg 94%
    01:00 +17°C° 0 mm 3 mps 645 mmHg 96%
    02:00 +17°C° 0 mm 3 mps 644 mmHg 97%
    03:00 +17°C° 0 mm 4 mps 644 mmHg 95%
    04:00 +17°C° 0 mm 4 mps 644 mmHg 93%
    05:00 +18°C° 0 mm 4 mps 644 mmHg 91%
    06:00 +18°C° 0 mm 4 mps 645 mmHg 86%
    07:00 +19°C° 0 mm 4 mps 646 mmHg 82%
    08:00 +20°C° 0 mm 4 mps 646 mmHg 77%
    09:00 +22°C° 0 mm 5 mps 647 mmHg 68%
    10:00 +25°C° 0 mm 5 mps 647 mmHg 58%
    11:00 +27°C° 0 mm 5 mps 647 mmHg 49%
    12:00 +28°C° 0 mm 5 mps 647 mmHg 45%
    13:00 +29°C° 0 mm 5 mps 646 mmHg 41%
    14:00 +30°C° 0 mm 5 mps 646 mmHg 37%
    15:00 +29°C° 0 mm 5 mps 645 mmHg 40%
    16:00 +28°C° 0 mm 5 mps 645 mmHg 42%
    17:00 +27°C° 0 mm 5 mps 644 mmHg 45%
    18:00 +25°C° 0 mm 4 mps 644 mmHg 54%
    19:00 +22°C° 0 mm 4 mps 644 mmHg 64%
    20:00 +20°C° 0 mm 3 mps 644 mmHg 74%
    21:00 +19°C° 0 mm 3 mps 644 mmHg 78%
    22:00 +18°C° 0 mm 3 mps 644 mmHg 82%
    23:00 +17°C° 0 mm 3 mps 644 mmHg 87%

    24 March, Sunday

    Time Temperature Precipitation Wind Pressure Humidity
    00:00 +17°C° 0 mm 3 mps 644 mmHg 88%
    01:00 +16°C° 0 mm 3 mps 644 mmHg 90%
    02:00 +16°C° 0 mm 3 mps 644 mmHg 91%
    03:00 +14°C° 0 mm 3 mps 644 mmHg 93%
    04:00 +14°C° 0 mm 3 mps 643 mmHg 94%
    05:00 +15°C° 0 mm 2 mps 643 mmHg 95%
    06:00 +16°C° 0 mm 3 mps 644 mmHg 88%
    07:00 +18°C° 0 mm 3 mps 645 mmHg 81%
    08:00 +19°C° 0 mm 4 mps 645 mmHg 74%
    09:00 +22°C° 0 mm 4 mps 646 mmHg 63%
    10:00 +25°C° 0 mm 4 mps 646 mmHg 52%
    11:00 +28°C° 0 mm 4 mps 646 mmHg 41%
    12:00 +29°C° 0 mm 4 mps 646 mmHg 38%
    13:00 +30°C° 0 mm 4 mps 645 mmHg 35%
    14:00 +32°C° 0 mm 4 mps 645 mmHg 32%
    15:00 +30°C° 0 mm 4 mps 644 mmHg 35%
    16:00 +29°C° 0 mm 4 mps 644 mmHg 37%
    17:00 +28°C° 0 mm 4 mps 643 mmHg 40%
    18:00 +26°C° 0 mm 3 mps 643 mmHg 49%
    19:00 +22°C° 0 mm 3 mps 643 mmHg 58%
    20:00 +20°C° 0 mm 3 mps 643 mmHg 67%
    21:00 +19°C° 0 mm 3 mps 643 mmHg 73%
    22:00 +19°C° 0 mm 3 mps 643 mmHg 80%
    23:00 +18°C° 0 mm 3 mps 643 mmHg 87%

    25 March, Monday

    Time Temperature Precipitation Wind Pressure Humidity
    00:00 +17°C° 0 mm 2 mps 643 mmHg 90%
    01:00 +17°C° 0 mm 2 mps 642 mmHg 93%
    02:00 +16°C° 0 mm 1 mps 642 mmHg 97%
    03:00 +16°C° 0 mm 1 mps 642 mmHg 96%
    04:00 +16°C° 0 mm 1 mps 642 mmHg 96%
    05:00 +16°C° 0 mm 1 mps 642 mmHg 96%
    06:00 +18°C° 0 mm 1 mps 643 mmHg 87%
    07:00 +20°C° 0 mm 1 mps 644 mmHg 79%
    08:00 +22°C° 0 mm 1 mps 645 mmHg 71%
    09:00 +25°C° 0 mm 1 mps 645 mmHg 59%
    10:00 +28°C° 0 mm 1 mps 646 mmHg 47%
    11:00 +31°C° 0 mm 1 mps 646 mmHg 35%
    12:00 +31°C° 0 mm 1 mps 645 mmHg 32%
    13:00 +32°C° 0 mm 1 mps 645 mmHg 29%
    14:00 +32°C° 0 mm 2 mps 644 mmHg 26%
    15:00 +31°C° 0 mm 2 mps 643 mmHg 28%
    16:00 +31°C° 0 mm 2 mps 643 mmHg 30%
    17:00 +30°C° 0 mm 3 mps 643 mmHg 31%
    18:00 +27°C° 0 mm 3 mps 642 mmHg 37%
    19:00 +25°C° 0 mm 2 mps 642 mmHg 43%
    20:00 +23°C° 0 mm 2 mps 642 mmHg 49%
    21:00 +21°C° 0 mm 2 mps 642 mmHg 53%
    22:00 +20°C° 0 mm 2 mps 642 mmHg 57%
    23:00 +21°C° 0 mm 1 mps 642 mmHg 60%
    Show more